Location: Unspecified
(29.9680°N, 0.0000°E)
Time: 06:55:38
(UTC+00:00)

A-11 Canister half - Pass Details

Date: 18 June 2019
Orbit: 1527 x 1682 km, 47.3° (Epoch: 13 October)

Event Time Altitude Azimuth Distance (km) Brightness Sun altitude
Rises 02:04:59 0° 177° (S) 4,791 - -28.9°
Reaches altitude 10° 02:09:54 10° 156° (SSE) 3,777 - -28.3°
Exits shadow 02:10:57 12° 150° (SSE) 3,621 10.7 -28.2°
Maximum altitude 02:14:53 15° 124° (SE) 3,332 10.7 -27.7°
Drops below altitude 10° 02:19:48 10° 92° (E) 3,727 11.4 -27.1°
Sets 02:24:31 0° 71° (ENE) 4,694 12.4 -26.5°
